Flag for China Weather past 2 weeks in Nanning, Guangxi, China

Now
50 °F

Clear.


Feels Like: 50 °F
Forecast: 51 / 65 °F
Wind: 1 mph from North

Location: Nanning Airport

Current Time: Dec 20, 2014 at 11:31:00 PM

Latest Report: Dec 20, 2014 at 11:00 PM


Visibility: 4 mi

Pressure: 30.12 "Hg

Humidity: 88%

Dew point: 46 °F

Location of NanningLocation

Historic Weather in Nanning — Graph

°F

Nanning temperature yesterday

Maximum temperature yesterday: 66 °F (at 3:00 PM)
Minimum temperature yesterday: 48 °F (at 1:00 AM)
Average temperature yesterday: 56 °F

Past Weeks' High & Low Weather Summary

 TemperatureHumidityPressure
High66 °F (Dec 19, 3:00 PM)100% (Dec 6, 4:00 PM)30.48 "Hg (Dec 6, 4:00 PM)
Low39 °F (Dec 18, 7:00 AM)20% (Dec 17, 4:00 PM)30.04 "Hg (Dec 6, 4:00 PM)
Average56 °F69%30.23 "Hg
* Reported Dec 5 10:00 PM — Dec 20 10:00 PM, Nanning, Weather by CustomWeather, © 2014

Note: Actual official high and low records may vary slightly from our data, if they occured in-between our weather recording intervals... More about our weather records

Advertising

Nanning weather history for previous 24 hours

 ConditionsComfort  
Time TempWeatherWind HumidityBarometerVisibility
10:00 PM
Dec 20
50 °FClear.1 mph88%30.09 "Hg4 mi
9:00 PM52 °FClear.1 mph82%30.07 "Hg4 mi
8:00 PM55 °FClear.3 mph72%30.07 "Hg4 mi
7:00 PM59 °FClear.1 mph63%30.04 "Hg4 mi
6:00 PM61 °FSunny.3 mph55%30.04 "Hg10 mi
5:00 PM66 °FSunny.1 mph40%30.04 "Hg10 mi
4:00 PM66 °FClear.1 mph43%30.04 "Hg6 mi
3:00 PM66 °FClear.3 mph40%30.07 "Hg6 mi
2:00 PM66 °FClear.1 mph40%30.09 "Hg6 mi
1:00 PM64 °FPassing clouds.6 mph43%30.15 "HgN/A
12:00 PM63 °FPassing clouds.6 mph45%30.18 "HgN/A
11:00 AM59 °FPassing clouds.8 mph51%30.21 "HgN/A
10:00 AM57 °FClear.1 mph67%30.24 "Hg4 mi
9:00 AM50 °FFog.No wind88%30.21 "Hg2 mi
8:00 AM45 °FFog.No wind93%30.21 "Hg3 mi
7:00 AM43 °FFog.1 mph93%30.18 "Hg3 mi
6:00 AM43 °FFog.1 mph100%30.18 "Hg3 mi
5:00 AM43 °FFog.3 mph100%30.18 "Hg3 mi
4:00 AM45 °FClear.1 mph93%30.18 "Hg4 mi
3:00 AM46 °FClear.No wind87%30.18 "Hg10 mi
2:00 AM46 °FClear.1 mph87%30.21 "Hg4 mi
1:00 AM48 °FClear.No wind82%30.21 "Hg4 mi
12:00 AM48 °FClear.1 mph87%30.21 "Hg4 mi
11:00 PM
Dec 19
48 °FClear.1 mph87%30.24 "Hg4 mi
Weather by CustomWeather, © 2014

See weather overviewHow to use our weather pages